Avoca, PA

12:39 AM EDT on October 17, 2017 (GMT -0400)
Wilkes-Barre-Scranton International

Weather History for KAVP - July, 2013

Change the Weather History Date:

Monday, July 29, 2013

  Actual Average Record
Temperature  
Mean Temperature 69 °F 71 °F  
Max Temperature 79 °F 82 °F 96 °F (1940)
Min Temperature 58 °F 61 °F 51 °F (1989)
Degree Days  
Heating Degree Days 0 0  
Month to date heating degree days 1 0  
Since 1 June heating degree days 22 54  
Since 1 July heating degree days 1 0  
Cooling Degree Days 4 7  
Month to date cooling degree days 325 198  
Year to date cooling degree days 525 352  
Since 1 June cooling degree days 461 315  
Growing Degree Days 20 (Base 50)    
Moisture  
Dew Point 55 °F    
Average Humidity 64    
Maximum Humidity 93    
Minimum Humidity 35    
Precipitation  
Precipitation 0.00 in 0.13 in 2.04 in (1901)
Month to date precipitation 1.74 3.52  
Year to date precipitation 16.92 21.35  
Sea Level Pressure  
Sea Level Pressure 30.06 in    
Wind  
Wind Speed 5 mph (WSW)    
Max Wind Speed 18 mph    
Max Gust Speed 23 mph    
Visibility 10 miles    
Events      
T = Trace of Precipitation, MM = Missing Value Source: NWS Daily Summary

Daily Weather History Graph

Daily Weather History Graph

Search for Another Location

Airport or City:

Trip Planner

Search our weather history database for the weather conditions in past years. The results will help you decide how hot, cold, wet, or windy it might be!

Date:

Astronomy

Jul. 29, 2013 Rise Set
Actual Time 5:55 AM EDT 8:22 PM EDT
Civil Twilight 5:23 AM EDT 8:54 PM EDT
Nautical Twilight 4:44 AM EDT 9:32 PM EDT
Astronomical Twilight 4:01 AM EDT 10:16 PM EDT
Moon No Moon Rise 1:40 PM EDT (7/29)
Length of Visible Light 15h 30m
Length of Day
14h 27m
Waning Gibbous, 51% of the Moon is Illuminated
Jul 29
Waning Gibbous
Jul 29
Last Quarter
Aug 6
New
Aug 14
First Quarter
Aug 20
Full

Hourly Weather History & Observations

Time (EDT) Temp. Dew Point Humidity Pressure Visibility Wind Dir Wind Speed Gust Speed Precip Events Conditions
12:54 AM 66.0 °F 61.0 °F 84% 29.97 in 10.0 mi East 5.8 mph - N/A   Mostly Cloudy
1:54 AM 64.9 °F 62.1 °F 90% 29.99 in 9.0 mi Calm Calm - N/A   Mostly Cloudy
2:32 AM 64.4 °F 62.6 °F 94% 30.01 in 10.0 mi Calm Calm - N/A   Overcast
2:54 AM 66.0 °F 62.1 °F 87% 29.99 in 10.0 mi Calm Calm - N/A   Overcast
3:54 AM 66.0 °F 62.1 °F 87% 29.99 in 9.0 mi Calm Calm - N/A   Overcast
4:54 AM 64.0 °F 60.1 °F 87% 30.02 in 10.0 mi WNW 4.6 mph - N/A   Mostly Cloudy
5:02 AM 64.4 °F 60.8 °F 88% 30.04 in 10.0 mi NW 4.6 mph - N/A   Overcast
5:15 AM 64.4 °F 60.8 °F 88% 30.03 in 10.0 mi NW 3.5 mph - N/A   Overcast
5:41 AM 62.6 °F 60.8 °F 94% 30.04 in 8.0 mi Calm Calm - N/A   Overcast
5:54 AM 63.0 °F 60.1 °F 90% 30.02 in 8.0 mi Calm Calm - N/A   Overcast
6:54 AM 63.0 °F 59.0 °F 87% 30.04 in 8.0 mi Calm Calm - N/A   Overcast
7:54 AM 66.0 °F 59.0 °F 78% 30.05 in 10.0 mi Calm Calm - N/A   Overcast
8:09 AM 64.4 °F 57.2 °F 77% 30.08 in 10.0 mi Calm Calm - N/A   Mostly Cloudy
8:27 AM 66.2 °F 57.2 °F 73% 30.08 in 10.0 mi West 4.6 mph - N/A   Mostly Cloudy
8:42 AM 64.4 °F 57.2 °F 77% 30.09 in 10.0 mi Calm Calm - N/A   Scattered Clouds
8:54 AM 66.9 °F 57.0 °F 70% 30.07 in 10.0 mi WSW 4.6 mph - N/A   Clear
9:54 AM 70.0 °F 54.0 °F 57% 30.07 in 10.0 mi Variable 5.8 mph - N/A   Clear
10:54 AM 73.0 °F 50.0 °F 44% 30.07 in 10.0 mi NNW 10.4 mph - N/A   Clear
11:54 AM 72.0 °F 50.0 °F 46% 30.07 in 10.0 mi Calm Calm - N/A   Partly Cloudy
12:54 PM 73.0 °F 52.0 °F 48% 30.06 in 10.0 mi Calm Calm - N/A   Mostly Cloudy
1:54 PM 73.9 °F 50.0 °F 43% 30.05 in 10.0 mi SSW 6.9 mph - N/A   Scattered Clouds
2:54 PM 78.1 °F 48.0 °F 35% 30.05 in 10.0 mi SW 9.2 mph 16.1 mph N/A   Clear
3:54 PM 78.1 °F 48.0 °F 35% 30.06 in 10.0 mi West 12.7 mph 20.7 mph N/A   Partly Cloudy
4:54 PM 75.9 °F 46.9 °F 36% 30.06 in 10.0 mi SW 8.1 mph - N/A   Clear
5:54 PM 75.9 °F 46.9 °F 36% 30.06 in 10.0 mi SW 10.4 mph 19.6 mph N/A   Partly Cloudy
6:54 PM 75.0 °F 48.9 °F 40% 30.07 in 10.0 mi WSW 12.7 mph - N/A   Clear
7:54 PM 73.0 °F 48.9 °F 42% 30.08 in 10.0 mi WSW 9.2 mph - N/A   Clear
8:54 PM 69.1 °F 50.0 °F 51% 30.10 in 10.0 mi SW 3.5 mph - N/A   Clear
9:54 PM 64.9 °F 52.0 °F 63% 30.12 in 10.0 mi Calm Calm - N/A   Clear
10:54 PM 61.0 °F 53.1 °F 75% 30.13 in 10.0 mi South 3.5 mph - N/A   Clear
11:54 PM 60.1 °F 53.1 °F 78% 30.14 in 10.0 mi ESE 3.5 mph - N/A   Clear